Location: Star Dogged Moon Observatory
(29.7756°N, 82.0783°W)
Time: 22:15:39
(UTC-04:00)

Amateur Radio Satellites - All Passes

Search period start: 16 April 2014 21:45
Search period end: 17 April 2014 21:45
Location: Star Dogged Moon Observatory, 29.7756°N, 82.0783°W

Satellite Date Start Highest point End Downlink Frequencies (MHz)
Time Altitude Azimuth
HO-68 16 Apr 21:52:56 22:00:03 80° 74° (ENE) 22:07:12 435.675 MHz FM
MaSat-1 16 Apr 21:57:15 21:59:46 20° 110° (ESE) 22:02:02 437.345 MHz
Saudisat 1A 16 Apr 22:04:23 22:08:47 85° 63° (ENE) 22:13:08 436.775 MHz
FUNcube-1 16 Apr 22:29:18 22:32:05 17° 71° (ENE) 22:34:50 145.950 - 145.970 MHz USB
Oscar 11 16 Apr 22:46:31 22:50:48 72° 259° (WSW) 22:55:06 145.825 FM, Beacon 2401.500 USB
MaSat-1 16 Apr 23:37:34 23:38:05 10° 295° (WNW) 23:38:35 437.345 MHz
HO-68 16 Apr 23:45:12 23:48:15 13° 266° (W) 23:51:20 435.675 MHz FM
FUNcube-1 17 Apr 00:04:36 00:08:16 28° 262° (W) 00:11:53 145.950 - 145.970 MHz USB
ISS 17 Apr 00:43:48 00:47:09 89° 38° (NE) 00:50:30 145.800 FM
PCSat 17 Apr 00:52:55 00:57:33 30° 107° (ESE) 01:02:13 145.825 MHz
SO-50 17 Apr 01:44:43 01:48:45 28° 57° (ENE) 01:52:50 436.795 FM
Sapphire 17 Apr 01:50:05 01:55:29 79° 294° (WNW) 02:00:55 437.095 MHz 1200 baud AX-25 AFSK
Oscar 19 17 Apr 02:23:04 02:27:35 30° 98° (E) 02:32:04 437.125 CW, 437.150 USB
Oscar 16 17 Apr 02:30:33 02:35:23 39° 99° (E) 02:40:12 437.025 USB, Beacon 2401.1428
PCSat 17 Apr 02:36:19 02:40:52 27° 301° (WNW) 02:45:27 145.825 MHz
OPAL 17 Apr 02:44:38 02:48:58 31° 69° (ENE) 02:53:21 ?
AO-Echo 17 Apr 02:48:33 02:51:50 19° 95° (E) 02:55:04 ?
Uribyol 2 17 Apr 03:00:35 03:05:24 38° 99° (E) 03:10:11 436.500 FM
Gurwin Techsat 1B 17 Apr 03:17:38 03:20:23 14° 94° (E) 03:23:08 435.225 FM
SO-50 17 Apr 03:25:27 03:29:09 23° 250° (WSW) 03:32:53 436.795 FM
KITSAT 1 17 Apr 03:26:38 03:34:31 59° 111° (ESE) 03:42:26 435.175 FM
AO-27 17 Apr 03:39:02 03:44:13 85° 284° (WNW) 03:49:23 436.795 MHz FM
ITAMSAT 1 17 Apr 03:50:32 03:55:40 66° 285° (WNW) 04:00:46 435.822 SSB
Oscar 19 17 Apr 04:02:34 04:06:43 25° 290° (WNW) 04:10:52 437.125 CW, 437.150 USB
JAS-1B 17 Apr 04:03:05 04:05:10 12° 95° (E) 04:07:18 435.800 - 435.900 CW/SSB
TMSAT-1 17 Apr 04:05:55 04:10:39 33° 98° (E) 04:15:21 436.925 FM
Oscar 16 17 Apr 04:10:48 04:14:24 19° 292° (WNW) 04:17:59 437.025 USB, Beacon 2401.1428
AO-7 17 Apr 04:15:11 04:16:49 11° 93° (E) 04:18:27 29.400 - 29.500 MHz
UOSAT-12 17 Apr 04:23:23 04:28:04 64° 62° (ENE) 04:32:41 437.025 FM, 437.400 FM
OPAL 17 Apr 04:23:57 04:27:47 22° 262° (W) 04:31:41 ?
AO-Echo 17 Apr 04:26:26 04:30:37 31° 288° (WNW) 04:34:44 ?
Uribyol 2 17 Apr 04:40:57 04:44:32 19° 292° (WNW) 04:48:07 436.500 FM
Uosat F 17 Apr 04:42:29 04:46:33 25° 97° (E) 04:50:36 435.120 FM
Gurwin Techsat 1B 17 Apr 04:55:25 05:00:32 51° 286° (WNW) 05:05:39 435.225 FM
KITSAT 1 17 Apr 05:23:42 05:30:16 27° 307° (NW) 05:36:52 435.175 FM
TMSAT-1 17 Apr 05:46:15 05:50:19 23° 291° (WNW) 05:54:24 436.925 FM
JAS-1B 17 Apr 05:50:34 05:56:07 58° 286° (WNW) 06:01:58 435.800 - 435.900 CW/SSB
AO-7 17 Apr 06:02:02 06:10:23 81° 106° (ESE) 06:18:44 29.400 - 29.500 MHz
Uosat F 17 Apr 06:21:03 06:25:13 27° 290° (WNW) 06:29:21 435.120 FM
AO-40 17 Apr 06:47:14 10:47:11 34° 132° (SE) 12:17:57 Beacon 2401.320
STRAND 1 17 Apr 06:56:35 07:01:18 38° 72° (ENE) 07:06:00 ?
RS-15 17 Apr 07:15:16 07:26:25 58° 111° (ESE) 07:37:08 29.354 - 29.394 USB, Beacon 29.352 USB
Hamsat 17 Apr 07:37:01 07:41:23 80° 102° (ESE) 07:45:45 145.90 MHz
AO-7 17 Apr 07:57:07 08:02:11 18° 301° (WNW) 08:07:16 29.400 - 29.500 MHz
MaSat-1 17 Apr 08:04:19 08:06:30 17° 67° (ENE) 08:08:55 437.345 MHz
Oscar 10/S400 17 Apr 08:27:55 04:08:58 53° 144° (SE) 13:20:01 145.825 - 145.975 CW/USB, Beacon 145.810 USB
JAS-2 17 Apr 08:36:08 08:41:36 85° 103° (ESE) 08:47:41 435.800 - 435.900 CW/SSB, 435.910 FM
STRAND 1 17 Apr 08:37:05 08:40:32 18° 264° (W) 08:43:59 ?
SO-67 17 Apr 09:11:20 09:14:27 30° 285° (WNW) 09:17:32 435.3500 MHz FM
PANSAT 17 Apr 09:24:42 09:27:55 25° 159° (SSE) 09:31:08 not established
HO-68 17 Apr 09:28:49 09:33:56 21° 96° (E) 09:39:01 435.675 MHz FM
RS-15 17 Apr 09:29:08 09:39:06 35° 308° (NW) 09:48:51 29.354 - 29.394 USB, Beacon 29.352 USB
MaSat-1 17 Apr 09:42:36 09:44:49 17° 251° (WSW) 09:47:17 437.345 MHz
Oscar 11 17 Apr 10:40:32 10:44:26 32° 98° (E) 10:48:20 145.825 FM, Beacon 2401.500 USB
Sapphire 17 Apr 10:44:55 10:49:15 24° 58° (ENE) 10:53:34 437.095 MHz 1200 baud AX-25 AFSK
PANSAT 17 Apr 11:04:04 11:07:53 60° 171° (S) 11:11:41 not established
HO-68 17 Apr 11:14:52 11:21:51 57° 289° (WNW) 11:28:49 435.675 MHz FM
PCSat 17 Apr 11:29:15 11:34:40 68° 65° (ENE) 11:40:01 145.825 MHz
FUNcube-1 17 Apr 11:58:57 12:03:13 86° 102° (ESE) 12:07:35 145.950 - 145.970 MHz USB
Saudisat 1A 17 Apr 12:05:03 12:09:31 85° 297° (WNW) 12:14:00 436.775 MHz
Oscar 11 17 Apr 12:17:39 12:20:19 16° 290° (WNW) 12:22:59 145.825 FM, Beacon 2401.500 USB
Sapphire 17 Apr 12:27:48 12:32:40 35° 252° (WSW) 12:37:31 437.095 MHz 1200 baud AX-25 AFSK
PANSAT 17 Apr 12:44:11 12:48:02 71° 184° (S) 12:51:52 not established
PCSat 17 Apr 13:16:04 13:17:24 11° 257° (WSW) 13:18:44 145.825 MHz
KITSAT 1 17 Apr 13:21:40 13:29:37 57° 61° (ENE) 13:37:29 435.175 FM
Oscar 19 17 Apr 13:34:36 13:38:36 24° 70° (ENE) 13:42:37 437.125 CW, 437.150 USB
Oscar 16 17 Apr 13:41:57 13:46:23 31° 71° (ENE) 13:50:51 437.025 USB, Beacon 2401.1428
AO-Echo 17 Apr 13:56:08 13:59:09 16° 68° (ENE) 14:02:08 ?
Uribyol 2 17 Apr 14:12:53 14:17:24 32° 71° (ENE) 14:21:55 436.500 FM
PANSAT 17 Apr 14:24:29 14:28:05 38° 196° (SSW) 14:31:41 not established
Gurwin Techsat 1B 17 Apr 14:33:45 14:36:09 13° 66° (ENE) 14:38:34 435.225 FM
AO-27 17 Apr 14:51:06 14:56:17 79° 76° (ENE) 15:01:29 436.795 MHz FM
OPAL 17 Apr 15:01:48 15:04:33 14° 96° (E) 15:07:18 ?
ITAMSAT 1 17 Apr 15:02:25 15:07:37 81° 257° (WSW) 15:12:49 435.822 SSB
Oscar 19 17 Apr 15:13:16 15:17:43 30° 262° (W) 15:22:14 437.125 CW, 437.150 USB
KITSAT 1 17 Apr 15:18:18 15:24:24 24° 256° (WSW) 15:30:30 435.175 FM
TMSAT-1 17 Apr 15:21:04 15:25:33 29° 71° (ENE) 15:30:02 436.925 FM
Oscar 16 17 Apr 15:21:40 15:25:40 23° 264° (W) 15:29:42 437.025 USB, Beacon 2401.1428
AO-Echo 17 Apr 15:32:20 15:37:28 50° 260° (W) 15:42:31 ?
ISS 17 Apr 15:45:31 15:48:45 51° 131° (SE) 15:52:00 145.800 FM
Uosat F 17 Apr 15:50:38 15:54:07 19° 68° (ENE) 15:57:36 435.120 FM
Uribyol 2 17 Apr 15:52:50 15:56:49 22° 263° (W) 16:00:49 436.500 FM
SO-50 17 Apr 15:54:04 15:58:08 35° 112° (ESE) 16:02:13 436.795 FM
PANSAT 17 Apr 16:06:16 16:07:52 12° 206° (SSW) 16:09:29 not established
Gurwin Techsat 1B 17 Apr 16:10:20 16:15:33 59° 259° (W) 16:20:48 435.225 FM
RS-15 17 Apr 16:24:32 16:34:27 37° 53° (NE) 16:44:32 29.354 - 29.394 USB, Beacon 29.352 USB
JAS-1B 17 Apr 16:26:46 16:35:27 69° 74° (ENE) 16:42:43 435.800 - 435.900 CW/SSB
OPAL 17 Apr 16:38:34 16:43:36 51° 288° (WNW) 16:48:37 ?
AO-7 17 Apr 16:54:06 17:02:15 65° 70° (ENE) 17:10:25 29.400 - 29.500 MHz
TMSAT-1 17 Apr 17:00:59 17:05:20 26° 263° (W) 17:09:43 436.925 FM
ISS 17 Apr 17:24:06 17:25:42 13° 325° (NW) 17:27:19 145.800 FM
Uosat F 17 Apr 17:27:59 17:32:36 36° 261° (W) 17:37:13 435.120 FM
SO-50 17 Apr 17:35:43 17:38:46 18° 306° (NW) 17:41:50 436.795 FM
JAS-1B 17 Apr 18:20:18 18:25:59 19° 263° (W) 18:31:11 435.800 - 435.900 CW/SSB
Hamsat 17 Apr 18:25:17 18:28:44 25° 72° (ENE) 18:32:12 145.90 MHz
UOSAT-12 17 Apr 18:28:45 18:33:14 80° 116° (ESE) 18:37:51 437.025 FM, 437.400 FM
RS-15 17 Apr 18:36:27 18:46:58 54° 250° (WSW) 18:57:53 29.354 - 29.394 USB, Beacon 29.352 USB
JAS-2 17 Apr 18:44:35 18:48:21 17° 69° (ENE) 18:51:54 435.800 - 435.900 CW/SSB, 435.910 FM
AO-7 17 Apr 18:49:35 18:55:23 21° 264° (W) 19:01:14 29.400 - 29.500 MHz
STRAND 1 17 Apr 19:13:57 19:17:47 21° 96° (E) 19:21:36 ?
SO-67 17 Apr 19:39:12 19:42:15 29° 75° (ENE) 19:45:19 435.3500 MHz FM
Hamsat 17 Apr 20:01:47 20:04:39 18° 265° (W) 20:07:32 145.90 MHz
JAS-2 17 Apr 20:27:05 20:33:08 50° 259° (W) 20:38:34 435.800 - 435.900 CW/SSB, 435.910 FM
Saudisat 1A 17 Apr 20:39:10 20:41:39 15° 52° (NE) 20:44:07 436.775 MHz
STRAND 1 17 Apr 20:52:27 20:56:56 32° 289° (WNW) 21:01:25 ?
Oscar 11 17 Apr 21:31:53 21:33:42 12° 68° (ENE) 21:35:30 145.825 FM, Beacon 2401.500 USB
